Regional Weather Roundup
Issued by NWS State College, PA

Home | Current Version | Previous Version | Text Only | Print | Product List | Glossary On
Versions: 1 2 3 4 5 6 7 8 9 10 11 12 13 14 15 16 17 18 19 20 21 22 23 24 25 26 27 28 29 30 31 32 33 34 35 36 37 38 39 40 41 42 43 44 45 46 47 48 49 50
000
ASUS41 KCTP 200410
RWRCTP

REGIONAL WEATHER ROUNDUP
NATIONAL WEATHER SERVICE STATE COLLEGE PA
1100 PM EST SUN NOV 19 2017

Note: "fair" indicates few or no clouds below 12,000 feet with no
significant weather and/or obstructions to visibility.

* = STATION THAT DOES NOT REPORT PRECIPITATION /E.G. RAIN...SNOW...ETC/
    THUNDER OR FOG.

PAZ002>004-007>009-013>016-020>023-029>032-200500-
WESTERN PENNSYLVANIA

CITY           SKY/WX    TMP DP  RH WIND       PRES   REMARKS
ERIE           CLOUDY    35  24  64 W14G24    29.92R
MEADVILLE      CLOUDY    29  27  92 W10       29.92R
FRANKLIN*      FLURRIES  29  24  82 W14       29.92R
NEW CASTLE     CLOUDY    32  23  69 W10G16    29.99R
BEAVER COUNTY  NOT AVBL
BUTLER*        CLOUDY    31  23  72 W10G22    29.97R
PITTSBURGH INT FLURRIES  33  22  63 W13       29.99R
PITTSBURGH     CLOUDY    32  19  58 W13G26    29.98R
INDIANA*       CLOUDY    32  23  69 W14G23    29.98R
LATROBE        CLOUDY    32  23  69 W10       30.00R
WASHINGTON CO* CLOUDY    32  23  69 W14       30.04R
$$

PAZ004>006-010>012-017>019-024>028-033>037-041-042-045-046-049>053-200500-
CENTRAL PENNSYLVANIA

CITY           SKY/WX    TMP DP  RH WIND       PRES   REMARKS
BRADFORD       FLURRIES  28  21  75 W13G24    29.82R
DUBOIS         SNOW      28  25  88 W13       29.87R VSB 1/2
CLEARFIELD     CLOUDY    31  25  78 W10G20    29.89R
JOHNSTOWN      CLOUDY    29  22  75 W17G30    29.89R
ALTOONA        MOCLDY    34  24  67 W20G29    29.90R
STATE COLLEGE  FLURRIES  32  26  80 W18G24    29.88R
WILLIAMSPORT   PTCLDY    34  31  88 W6        29.85R
SELINSGROVE    FLURRIES  37  27  67 W14G24    29.88R
FT INDIANTOWN  MOCLDY    38  26  60 W13G21    29.87R
CAPITAL CITY   LGT RAIN  39  26  59 W15G26    29.89R
HARRISBURG     MOCLDY    40  29  64 W21G33    29.89R
YORK           PTCLDY    38  27  64 W8        29.89R
$$

PAZ038>040-043-044-047-048-054-055-060>062-067>071-200500-
EASTERN PENNSYLVANIA

CITY           SKY/WX    TMP DP  RH WIND       PRES   REMARKS
SCRANTON       CLOUDY    33  29  85 NW9       29.80R
MOUNT POCONO   NOT AVBL
ALLENTOWN      MOCLDY    38  26  62 W13       29.82R
QUAKERTOWN*    PTCLDY    37  27  65 W6G17     29.83S
READING        PTCLDY    38  28  67 W10       29.85R
LANCASTER      MOCLDY    37  28  70 W10       29.88R
COATESVILLE    PTCLDY    36  27  69 W8        29.87R
POTTSTOWN      CLEAR     37  25  61 W9        29.86R
BLUE BELL      CLEAR     37  27  65 W5        29.86R
DOYLESTOWN     CLEAR     38  26  62 W8        29.83R
WILLOW GROVE   NOT AVBL
NORTH PHILA    PTCLDY    41  26  55 W13       29.87R
PHILADELPHIA   PTCLDY    41  24  51 W12       29.88R
$$




USA.gov is the U.S. government's official web portal to all federal, state and local government web resources and services.